Weather History for KPKD - September, 2012

Change the Weather History Date:

Tuesday, September 25, 2012

  Actual Average Record
Temperature  
Mean Temperature 45 °F -  
Max Temperature 63 °F 64 °F 81 °F (1983)
Min Temperature 28 °F 39 °F 24 °F (1982)
Degree Days  
Heating Degree Days 20    
Moisture  
Dew Point 31 °F    
Average Humidity 60    
Maximum Humidity 89    
Minimum Humidity 26    
Precipitation  
Precipitation 0.00 in - - ()
Sea Level Pressure  
Sea Level Pressure 29.95 in    
Wind  
Wind Speed 4 mph (North)    
Max Wind Speed 13 mph    
Max Gust Speed 18 mph    
Visibility 10 miles    
Events      
Averages and records for this station are not official NWS values.
T = Trace of Precipitation, MM = Missing Value Source: NWS Daily Summary

Daily Weather History Graph

Daily Weather History Graph

Search for Another Location

Airport or City:

Trip Planner

Search our weather history database for the weather conditions in past years. The results will help you decide how hot, cold, wet, or windy it might be!

Date:

Astronomy

Sep. 25, 2012 Rise Set
Actual Time 7:11 AM CDT 7:10 PM CDT
Civil Twilight 6:41 AM CDT 7:41 PM CDT
Nautical Twilight 6:05 AM CDT 8:16 PM CDT
Astronomical Twilight 5:29 AM CDT 8:52 PM CDT
Moon 4:49 PM CDT (9/25) 2:18 AM CDT (9/25)
Length of Visible Light 12h 59m
Length of Day
11h 59m
Waxing Gibbous, 80% of the Moon is Illuminated
Sep 25
Waxing Gibbous
Sep 29
Full
Oct 8
Last Quarter
Oct 15
New
Oct 21
First Quarter

Hourly Weather History & Observations

Time (CDT) Temp. Windchill Dew Point Humidity Pressure Visibility Wind Dir Wind Speed Gust Speed Precip Events Conditions
12:53 AM 46.0 °F 43.1 °F 35.1 °F 66% 29.87 in 10.0 mi North 5.8 mph - N/A   Clear
1:53 AM 44.1 °F 40.8 °F 34.0 °F 68% 29.88 in 10.0 mi NNE 5.8 mph - N/A   Clear
2:53 AM 43.0 °F 41.3 °F 34.0 °F 71% 29.88 in 10.0 mi North 3.5 mph - N/A   Clear
3:53 AM 35.1 °F - 32.0 °F 89% 29.90 in 10.0 mi Calm Calm - N/A   Clear
4:53 AM 30.9 °F - 28.0 °F 89% 29.91 in 10.0 mi Calm Calm - N/A   Clear
5:53 AM 30.0 °F - 27.0 °F 88% 29.92 in 10.0 mi Calm Calm - N/A   Clear
6:53 AM 28.0 °F - 25.0 °F 88% 29.93 in 10.0 mi Calm Calm - N/A   Clear
7:53 AM 30.9 °F - 28.0 °F 89% 29.95 in 10.0 mi Calm Calm - N/A   Clear
8:53 AM 43.0 °F - 39.0 °F 86% 29.95 in 10.0 mi Calm Calm - N/A   Clear
9:53 AM 50.0 °F - 39.0 °F 66% 29.96 in 10.0 mi Calm Calm - N/A   Clear
10:53 AM 54.0 °F - 34.0 °F 47% 29.96 in 10.0 mi North 5.8 mph - N/A   Clear
11:53 AM 55.0 °F - 34.0 °F 45% 29.97 in 10.0 mi Variable 3.5 mph - N/A   Clear
12:53 PM 57.0 °F - 30.9 °F 37% 29.96 in 10.0 mi Variable 4.6 mph - N/A   Clear
2:53 PM 61.0 °F - 30.0 °F 31% 29.93 in 10.0 mi North 6.9 mph - N/A   Clear
3:53 PM 62.1 °F - 27.0 °F 26% 29.93 in 10.0 mi West 6.9 mph - N/A   Clear
4:53 PM 61.0 °F - 28.0 °F 29% 29.93 in 10.0 mi West 6.9 mph - N/A   Clear
5:53 PM 61.0 °F - 28.0 °F 29% 29.94 in 10.0 mi NW 12.7 mph 18.4 mph N/A   Clear
6:53 PM 57.0 °F - 30.9 °F 37% 29.97 in 10.0 mi NNW 10.4 mph - N/A   Clear
7:53 PM 48.9 °F - 30.0 °F 48% 29.99 in 10.0 mi NNW 5.8 mph - N/A   Clear
8:53 PM 46.9 °F - 30.9 °F 54% 29.99 in 10.0 mi North 4.6 mph - N/A   Clear
9:53 PM 46.4 °F 42.9 °F 33.8 °F 62% 29.99 in 10.0 mi North 6.9 mph - N/A   Clear
10:53 PM 45.0 °F 42.6 °F 33.1 °F 63% 30.03 in 10.0 mi NNE 4.6 mph - N/A   Clear
11:53 PM 35.6 °F - 30.2 °F 81% 30.03 in 10.0 mi Calm Calm - N/A   Clear